Location: Nantong Television Tower
(32.0188°N, 120.8512°E)
Time: 02:13:29
(UTC+08:00)

Vanguard 3 - Visible Passes

Search period start: 26 October 2014 00:00
Search period end: 05 November 2014 00:00
Orbit: 508 x 3278 km, 33.3° (Epoch: 24 October)

Date Brightness Start Highest point End Pass type
(mag) Time Alt. Az. Time Alt. Az. Time Alt. Az.
26 Oct 7.8 04:32:46 22° SSW 04:32:46 22° SSW 04:35:06 10° SSE visible
26 Oct 10.5 18:17:51 10° S 18:27:30 17° SSE 18:33:35 13° ESE visible
26 Oct 10.0 20:28:26 10° SW 20:38:20 34° S 20:38:20 34° S visible
27 Oct 9.9 19:14:47 10° SSW 19:29:03 32° SSE 19:30:41 31° SE visible
27 Oct 10.4 21:29:26 10° WSW 21:35:27 26° SW 21:35:27 26° SW visible
28 Oct 8.6 04:22:11 13° S 04:22:11 13° S 04:22:49 10° S visible
28 Oct 10.4 18:02:24 10° S 18:15:07 23° SE 18:23:01 14° ESE visible
28 Oct 9.6 20:14:37 10° SW 20:27:47 46° S 20:27:47 46° S visible
28 Oct 11.0 22:31:33 10° WSW 22:32:33 12° WSW 22:32:33 12° WSW visible
29 Oct 9.7 19:00:32 10° SSW 19:16:38 39° SSE 19:20:06 35° SE visible
29 Oct 10.1 21:16:06 10° WSW 21:24:51 36° SW 21:24:51 36° SW visible
30 Oct 10.3 17:47:36 10° SSW 18:02:34 29° SE 18:12:23 14° E visible
30 Oct 9.3 20:00:57 10° SW 20:17:08 58° S 20:17:08 58° S visible
30 Oct 10.8 22:18:35 10° WSW 22:21:53 19° W 22:21:53 19° W visible
31 Oct 9.7 18:46:32 10° SW 19:04:05 47° SSE 19:09:23 35° ESE visible
31 Oct 9.8 21:02:50 10° WSW 21:14:08 47° WSW 21:14:08 47° WSW visible
01 Nov 10.4 17:33:14 10° SSW 17:49:51 35° SE 18:01:36 13° E visible
01 Nov 9.2 19:47:24 10° SW 20:05:33 67° SSE 20:06:21 66° SE visible
01 Nov 10.6 22:05:36 10° W 22:11:06 25° W 22:11:06 25° W visible
02 Nov 9.7 18:32:44 10° SW 18:51:24 54° SSE 18:58:31 33° E visible
02 Nov 9.6 20:49:37 10° WSW 21:03:16 59° WSW 21:03:16 59° WSW visible
03 Nov 10.4 17:19:12 10° SSW 17:36:59 41° SE 17:50:40 11° E visible
03 Nov 9.2 19:33:59 10° WSW 19:52:59 74° SSE 19:55:24 65° ESE visible
03 Nov 10.4 21:52:35 10° W 22:00:08 31° W 22:00:08 31° W visible
04 Nov 9.8 18:19:09 10° SW 18:38:35 61° SSE 18:47:30 30° E visible
04 Nov 9.4 20:36:27 10° WSW 20:52:14 70° WSW 20:52:14 70° WSW visible
04 Nov 11.1 22:55:36 10° W 22:56:58 13° W 22:56:58 13° W visible
